FW4822 Weather Reports


Display with metric or nautical units.
time (UTC)temp
F
wind
direction
speed
MPH
gust
MPH
rain 1hr
in
rain 24hr
in
rain mn
in
humidity
%
barometer
mb
20260906183035 71 195 0.0 6.0 0.00 0.00 0.00 62 1016.6
20260906181516 70 26 3.0 9.0 0.00 0.00 0.00 62 1016.7
20260906180018 71 360 2.0 8.0 0.00 0.00 0.00 60 1016.8
20260906174509 70 275 1.0 8.0 0.00 0.00 0.00 65 1016.8
20260906173013 69 40 1.0 9.0 0.00 0.00 0.00 68 1016.9
20260906171518 70 51 1.0 8.0 0.00 0.00 0.00 67 1016.9
20260906170011 70 291 1.0 7.0 0.00 0.00 0.00 67 1017.0
20260906164508 68 155 0.0 9.0 0.00 0.00 0.00 71 1017.0
20260906163108 68 132 1.0 5.0 0.00 0.00 0.00 74 1017.0
20260906161602 67 130 0.0 5.0 0.00 0.00 0.00 78 1017.2
20260906160058 65 19 0.0 7.0 0.00 0.00 0.00 79 1017.3
20260906154559 66 111 1.0 5.0 0.00 0.00 0.00 76 1017.4
20260906153059 67 198 1.0 8.0 0.00 0.00 0.00 76 1017.2
20260906151554 65 190 0.0 7.0 0.00 0.00 0.00 80 1017.4
20260906150055 63 348 3.0 6.0 0.00 0.00 0.00 83 1017.4
20260906144559 64 289 1.0 6.0 0.00 0.00 0.00 83 1017.3
20260906143054 63 18 2.0 5.0 0.00 0.00 0.00 84 1017.1
20260906141552 62 28 1.0 5.0 0.00 0.00 0.00 85 1017.0
20260906140048 62 360 2.0 6.0 0.00 0.00 0.00 85 1016.7
20260906134551 62 11 1.0 6.0 0.00 0.00 0.00 87 1016.7
20260906133047 61 51 3.0 7.0 0.00 0.00 0.00 90 1016.7
20260906131544 60 35 1.0 5.0 0.00 0.00 0.00 92 1016.5
20260906130049 59 48 0.0 4.0 0.00 0.00 0.00 93 1016.6
20260906124540 59 46 0.0 3.0 0.00 0.00 0.00 94 1016.6
20260906123035 58 56 1.0 6.0 0.00 0.00 0.00 95 1016.5
20260906121540 58 17 1.0 3.0 0.00 0.00 0.00 95 1016.3
20260906120027 58 69 0.0 3.0 0.00 0.00 0.00 95 1016.1
20260906114531 57 5 2.0 5.0 0.00 0.00 0.00 95 1015.8
20260906113041 57 5 0.0 4.0 0.00 0.01 0.00 96 1015.7
20260906111525 57 36 0.0 1.0 0.00 0.01 0.00 96 1015.6
20260906110023 57 51 0.0 3.0 0.00 0.01 0.00 96 1015.5
20260906104528 57 53 0.0 2.0 0.00 0.01 0.00 96 1015.4
20260906103033 57 29 0.0 2.0 0.00 0.01 0.00 95 1015.4
20260906101532 57 67 0.0 4.0 0.00 0.01 0.00 95 1015.4
20260906100031 57 40 0.0 2.0 0.00 0.01 0.00 96 1015.4
20260906094533 57 13 1.0 5.0 0.00 0.01 0.00 96 1015.3
20260906093035 57 5 1.0 4.0 0.00 0.01 0.00 96 1015.3
20260906091534 57 5 1.0 4.0 0.00 0.01 0.00 96 1015.0
20260906090030 57 333 0.0 3.0 0.00 0.01 0.00 96 1014.9
20260906084531 57 355 0.0 4.0 0.00 0.01 0.00 95 1014.8
20260906083025 57 38 0.0 2.0 0.00 0.01 0.00 96 1014.6
20260906081538 57 41 0.0 4.0 0.00 0.01 0.00 96 1014.5
20260906080022 57 36 0.0 5.0 0.00 0.01 0.00 96 1014.3
20260906074522 57 38 0.0 4.0 0.00 0.01 0.00 96 1014.3
20260906073019 57 344 1.0 4.0 0.00 0.01 0.00 96 1014.2
20260906071519 57 63 0.0 3.0 0.00 0.01 0.00 95 1014.0
20260906070017 57 13 1.0 3.0 0.00 0.01 0.00 95 1014.1
20260906064514 57 94 0.0 5.0 0.00 0.01 0.00 95 1014.0
20260906063009 56 32 0.0 4.0 0.00 0.01 0.01 95 1014.3
20260906061508 56 40 0.0 2.0 0.00 0.01 0.01 95 1014.2
20260906060015 56 55 0.0 1.0 0.00 0.01 0.01 95 1014.2
20260906054505 57 54 0.0 2.0 0.00 0.01 0.01 95 1014.4
20260906053002 57 54 0.0 2.0 0.00 0.01 0.01 94 1014.4
20260906051605 57 54 0.0 1.0 0.00 0.01 0.01 94 1014.4
20260906051502 57 30 0.0 1.0 0.00 0.01 0.01 94 1014.4
20260906050100 57 34 0.0 2.0 0.00 0.01 0.01 94 1014.3
20260906044559 58 5 0.0 5.0 0.00 0.01 0.01 94 1014.2
20260906043003 58 143 0.0 3.0 0.00 0.01 0.01 93 1014.2
20260906041502 58 53 0.0 5.0 0.00 0.01 0.01 93 1014.2
20260906040002 58 355 0.0 4.0 0.00 0.01 0.01 92 1014.2
20260906034600 58 56 0.0 3.0 0.00 0.01 0.01 92 1014.1
20260906033056 58 46 0.0 2.0 0.00 0.01 0.01 92 1014.0
20260906031602 58 45 0.0 1.0 0.00 0.01 0.01 92 1014.0
20260906030055 58 162 0.0 0.0 0.00 0.01 0.01 91 1013.9
20260906024553 59 162 0.0 0.0 0.00 0.01 0.01 90 1013.8
20260906023059 59 162 0.0 0.0 0.00 0.01 0.01 88 1013.9
20260906021556 60 162 0.0 0.0 0.00 0.01 0.01 87 1013.9
20260906014554 61 67 0.0 2.0 0.00 0.01 0.01 84 1013.6
20260906013057 62 350 0.0 3.0 0.00 0.01 0.01 84 1013.5
20260906011556 62 54 0.0 4.0 0.00 0.01 0.01 82 1013.3
20260906010055 63 71 0.0 4.0 0.00 0.01 0.01 80 1013.4
20260906004554 63 78 0.0 3.0 0.00 0.01 0.01 80 1013.0
20260906003048 64 336 0.0 4.0 0.00 0.01 0.01 79 1013.0
20260906001548 64 38 0.0 5.0 0.00 0.01 0.01 78 1013.0
20260906000048 64 76 0.0 2.0 0.00 0.01 0.01 77 1012.7
20260905234548 65 161 0.0 2.0 0.00 0.01 0.01 76 1012.7
20260905233047 66 222 0.0 1.0 0.00 0.01 0.01 74 1012.7
20260905231544 67 119 0.0 2.0 0.00 0.01 0.01 72 1012.6
20260905230050 67 227 0.0 3.0 0.00 0.01 0.01 72 1012.7
20260905224559 68 5 0.0 3.0 0.00 0.01 0.01 71 1012.6
20260905223048 69 12 1.0 6.0 0.00 0.01 0.01 67 1012.5
20260905221557 70 360 1.0 4.0 0.00 0.01 0.01 65 1012.5
20260905214547 70 360 0.0 3.0 0.00 0.01 0.01 69 1012.2
20260905213049 70 317 0.0 5.0 0.00 0.01 0.01 66 1012.1
20260905211548 71 312 0.0 5.0 0.00 0.01 0.01 65 1012.0
20260905210052 71 22 1.0 4.0 0.00 0.01 0.01 63 1012.1
20260905204549 70 5 1.0 7.0 0.00 0.01 0.01 64 1012.1
20260905203051 70 5 0.0 5.0 0.00 0.01 0.01 64 1012.2
20260905201543 71 14 1.0 6.0 0.00 0.01 0.01 62 1012.0
20260905200050 73 5 0.0 3.0 0.00 0.01 0.01 61 1012.0
20260905194537 73 355 1.0 5.0 0.00 0.01 0.01 60 1011.9
20260905193042 71 65 1.0 5.0 0.00 0.01 0.01 64 1012.0
20260905191541 72 346 0.0 3.0 0.00 0.01 0.01 62 1012.1
20260905190041 70 24 0.0 4.0 0.00 0.01 0.01 65 1012.2
20260905184541 70 26 1.0 5.0 0.00 0.01 0.01 61 1012.3